Time,TemperatureF,DewpointF,PressureIn,WindDirection,WindDirectionDegrees,WindSpeedMPH,WindSpeedGustMPH,Humidity,HourlyPrecipIn,Conditions,Clouds,dailyrainin,SoftwareType,DateUTC
2013-10-10 00:00:00,52.3,49.0,30.01,WNW,292,2.3,11.0,89,0.00,,,0.00,Rainwise IP-100,2013-10-10 07:00:00,
2013-10-10 00:05:00,53.1,48.0,30.01,NNW,337,0.0,5.0,84,0.00,,,0.00,Rainwise IP-100,2013-10-10 07:05:00,
2013-10-10 00:10:00,53.0,47.0,30.01,NNE,22,1.6,3.0,83,0.00,,,0.00,Rainwise IP-100,2013-10-10 07:10:00,
2013-10-10 00:15:00,52.4,47.0,30.01,SSE,157,0.0,2.0,84,0.00,,,0.00,Rainwise IP-100,2013-10-10 07:15:00,
2013-10-10 00:20:00,51.9,48.0,30.01,SSW,202,2.1,3.0,86,0.00,,,0.00,Rainwise IP-100,2013-10-10 07:20:00,
2013-10-10 00:25:00,51.5,48.0,30.00,WSW,247,5.1,5.1,88,0.00,,,0.00,Rainwise IP-100,2013-10-10 07:25:00,
2013-10-10 00:30:00,51.4,48.0,30.01,WNW,292,6.8,12.0,89,0.00,,,0.00,Rainwise IP-100,2013-10-10 07:30:00,
2013-10-10 00:35:00,51.4,48.0,30.01,West,270,4.0,10.0,90,0.00,,,0.00,Rainwise IP-100,2013-10-10 07:35:00,
2013-10-10 00:40:00,51.3,49.0,30.00,SE,135,3.0,11.0,91,0.00,,,0.00,Rainwise IP-100,2013-10-10 07:40:00,
2013-10-10 00:45:00,51.1,49.0,30.01,SW,225,3.5,7.0,91,0.00,,,0.00,Rainwise IP-100,2013-10-10 07:45:00,
2013-10-10 00:50:00,50.9,49.0,30.00,SSW,202,0.0,6.0,92,0.00,,,0.00,Rainwise IP-100,2013-10-10 07:50:00,
2013-10-10 00:55:00,50.8,48.0,30.01,NW,315,2.3,3.0,92,0.00,,,0.00,Rainwise IP-100,2013-10-10 07:55:00,
2013-10-10 01:00:00,50.6,48.0,30.01,NW,315,0.0,2.0,93,0.00,,,0.00,Rainwise IP-100,2013-10-10 08:00:00,
2013-10-10 01:05:00,50.4,48.0,30.01,NNW,337,0.0,0.0,93,0.00,,,0.00,Rainwise IP-100,2013-10-10 08:05:00,
2013-10-10 01:10:00,50.4,48.0,30.01,NNE,22,3.5,3.5,93,0.00,,,0.00,Rainwise IP-100,2013-10-10 08:10:00,
2013-10-10 01:15:00,50.3,47.0,30.01,ENE,67,1.2,3.0,93,0.00,,,0.00,Rainwise IP-100,2013-10-10 08:15:00,
2013-10-10 01:20:00,50.2,47.0,30.01,ENE,67,2.3,2.3,93,0.00,,,0.00,Rainwise IP-100,2013-10-10 08:20:00,
2013-10-10 01:25:00,50.2,47.0,30.01,ENE,67,0.0,3.0,93,0.00,,,0.00,Rainwise IP-100,2013-10-10 08:25:00,
2013-10-10 01:30:00,50.0,47.0,30.01,SE,135,0.0,2.0,93,0.00,,,0.00,Rainwise IP-100,2013-10-10 08:30:00,
2013-10-10 01:35:00,50.0,47.0,30.01,NW,315,0.0,5.0,93,0.00,,,0.00,Rainwise IP-100,2013-10-10 08:35:00,
2013-10-10 01:40:00,50.1,47.0,30.02,NE,45,1.6,4.0,93,0.00,,,0.00,Rainwise IP-100,2013-10-10 08:40:00,
2013-10-10 01:45:00,50.1,47.0,30.02,ENE,67,1.4,2.0,93,0.00,,,0.00,Rainwise IP-100,2013-10-10 08:45:00,
2013-10-10 01:50:00,50.2,47.0,30.02,South,180,1.4,4.0,92,0.00,,,0.00,Rainwise IP-100,2013-10-10 08:50:00,
2013-10-10 01:55:00,50.1,47.0,30.02,SSW,202,1.2,4.0,92,0.00,,,0.00,Rainwise IP-100,2013-10-10 08:55:00,
2013-10-10 02:00:00,50.2,47.0,30.02,North,360,4.2,5.0,92,0.00,,,0.00,Rainwise IP-100,2013-10-10 09:00:00,
2013-10-10 02:05:00,50.6,48.0,30.02,WSW,247,5.8,8.0,91,0.00,,,0.00,Rainwise IP-100,2013-10-10 09:05:00,
2013-10-10 02:10:00,51.6,48.0,30.02,WSW,247,7.7,14.0,88,0.00,,,0.00,Rainwise IP-100,2013-10-10 09:10:00,
2013-10-10 02:15:00,51.8,48.0,30.02,West,270,4.2,14.0,88,0.00,,,0.00,Rainwise IP-100,2013-10-10 09:15:00,
2013-10-10 02:20:00,51.3,48.0,30.03,SSW,202,1.9,6.0,89,0.00,,,0.00,Rainwise IP-100,2013-10-10 09:20:00,
2013-10-10 02:25:00,51.0,48.0,30.03,WNW,292,1.2,11.0,90,0.00,,,0.00,Rainwise IP-100,2013-10-10 09:25:00,
2013-10-10 02:30:00,50.9,49.0,30.03,WSW,247,5.6,5.6,91,0.00,,,0.00,Rainwise IP-100,2013-10-10 09:30:00,
2013-10-10 02:35:00,50.8,48.0,30.02,WSW,247,2.3,5.0,91,0.00,,,0.00,Rainwise IP-100,2013-10-10 09:35:00,
2013-10-10 02:40:00,50.7,48.0,30.03,WSW,247,5.8,8.0,92,0.00,,,0.00,Rainwise IP-100,2013-10-10 09:40:00,
2013-10-10 02:45:00,50.6,48.0,30.03,WNW,292,9.3,13.0,93,0.00,,,0.00,Rainwise IP-100,2013-10-10 09:45:00,
2013-10-10 02:50:00,50.6,48.0,30.03,WNW,292,4.0,11.0,93,0.00,,,0.00,Rainwise IP-100,2013-10-10 09:50:00,
2013-10-10 02:55:00,50.4,49.0,30.03,West,270,1.6,7.0,94,0.00,,,0.00,Rainwise IP-100,2013-10-10 09:55:00,
2013-10-10 03:00:00,50.4,49.0,30.03,WSW,247,7.7,8.0,94,0.00,,,0.00,Rainwise IP-100,2013-10-10 10:00:00,
2013-10-10 03:05:00,50.4,49.0,30.03,SSE,157,0.0,9.0,94,0.00,,,0.00,Rainwise IP-100,2013-10-10 10:05:00,
2013-10-10 03:10:00,50.3,48.0,30.03,SW,225,2.8,4.0,95,0.00,,,0.00,Rainwise IP-100,2013-10-10 10:10:00,
2013-10-10 03:15:00,50.2,48.0,30.03,WSW,247,2.6,3.0,95,0.00,,,0.00,Rainwise IP-100,2013-10-10 10:15:00,
2013-10-10 03:20:00,50.2,48.0,30.03,West,270,5.4,7.0,95,0.00,,,0.00,Rainwise IP-100,2013-10-10 10:20:00,
2013-10-10 03:25:00,50.3,48.0,30.03,WNW,292,5.4,8.0,95,0.00,,,0.00,Rainwise IP-100,2013-10-10 10:25:00,
2013-10-10 03:30:00,50.4,49.0,30.04,West,270,3.7,8.0,95,0.00,,,0.00,Rainwise IP-100,2013-10-10 10:30:00,
2013-10-10 03:35:00,50.7,49.0,30.03,NW,315,4.0,10.0,94,0.00,,,0.00,Rainwise IP-100,2013-10-10 10:35:00,
2013-10-10 03:40:00,51.0,50.0,30.03,WNW,292,0.0,5.0,94,0.00,,,0.00,Rainwise IP-100,2013-10-10 10:40:00,
2013-10-10 03:45:00,51.2,49.0,30.03,SSW,202,0.0,1.0,91,0.00,,,0.00,Rainwise IP-100,2013-10-10 10:45:00,
2013-10-10 03:50:00,51.1,48.0,30.04,WNW,292,3.7,4.0,90,0.00,,,0.00,Rainwise IP-100,2013-10-10 10:50:00,
2013-10-10 03:55:00,51.3,48.0,30.04,West,270,2.3,4.0,89,0.00,,,0.00,Rainwise IP-100,2013-10-10 10:55:00,
2013-10-10 04:00:00,51.8,48.0,30.04,WNW,292,4.9,6.0,87,0.00,,,0.00,Rainwise IP-100,2013-10-10 11:00:00,
2013-10-10 04:05:00,52.4,47.0,30.04,WNW,292,2.1,6.0,85,0.00,,,0.00,Rainwise IP-100,2013-10-10 11:05:00,
2013-10-10 04:10:00,53.3,47.0,30.04,SW,225,0.0,2.0,81,0.00,,,0.00,Rainwise IP-100,2013-10-10 11:10:00,
2013-10-10 04:15:00,53.8,47.0,30.05,West,270,4.0,4.0,78,0.00,,,0.00,Rainwise IP-100,2013-10-10 11:15:00,
2013-10-10 04:20:00,53.4,47.0,30.05,WNW,292,0.0,4.0,79,0.00,,,0.00,Rainwise IP-100,2013-10-10 11:20:00,
2013-10-10 04:25:00,52.6,47.0,30.05,WNW,292,2.1,3.0,81,0.00,,,0.00,Rainwise IP-100,2013-10-10 11:25:00,
2013-10-10 04:30:00,52.0,47.0,30.05,WNW,292,6.5,10.0,83,0.00,,,0.00,Rainwise IP-100,2013-10-10 11:30:00,
2013-10-10 04:35:00,51.6,48.0,30.05,WNW,292,2.8,7.0,86,0.00,,,0.00,Rainwise IP-100,2013-10-10 11:35:00,
2013-10-10 04:40:00,51.4,47.0,30.06,SW,225,1.9,8.0,88,0.00,,,0.00,Rainwise IP-100,2013-10-10 11:40:00,
2013-10-10 04:45:00,51.2,48.0,30.06,West,270,3.3,4.0,89,0.00,,,0.00,Rainwise IP-100,2013-10-10 11:45:00,
2013-10-10 04:50:00,51.2,48.0,30.05,WNW,292,4.2,6.0,90,0.00,,,0.00,Rainwise IP-100,2013-10-10 11:50:00,
2013-10-10 04:55:00,51.3,48.0,30.05,WNW,292,6.3,6.3,89,0.00,,,0.00,Rainwise IP-100,2013-10-10 11:55:00,
2013-10-10 05:00:00,51.6,48.0,30.06,WNW,292,4.4,7.0,88,0.00,,,0.00,Rainwise IP-100,2013-10-10 12:00:00,
2013-10-10 05:05:00,52.1,48.0,30.06,WSW,247,1.4,7.0,87,0.00,,,0.00,Rainwise IP-100,2013-10-10 12:05:00,
2013-10-10 05:10:00,52.3,48.0,30.06,WNW,292,5.6,8.0,86,0.00,,,0.00,Rainwise IP-100,2013-10-10 12:10:00,
2013-10-10 05:15:00,52.3,47.0,30.06,WNW,292,5.1,6.0,85,0.00,,,0.00,Rainwise IP-100,2013-10-10 12:15:00,
2013-10-10 05:20:00,52.2,48.0,30.06,WNW,292,9.1,9.1,86,0.00,,,0.00,Rainwise IP-100,2013-10-10 12:20:00,
2013-10-10 05:25:00,51.8,48.0,30.06,West,270,3.5,9.0,87,0.00,,,0.00,Rainwise IP-100,2013-10-10 12:25:00,
2013-10-10 05:30:00,51.4,48.0,30.06,WNW,292,2.6,5.0,89,0.00,,,0.00,Rainwise IP-100,2013-10-10 12:30:00,
2013-10-10 05:35:00,51.1,48.0,30.06,NW,315,2.6,6.0,90,0.00,,,0.00,Rainwise IP-100,2013-10-10 12:35:00,
2013-10-10 05:40:00,51.2,48.0,30.06,NW,315,3.3,5.0,90,0.00,,,0.00,Rainwise IP-100,2013-10-10 12:40:00,
2013-10-10 05:45:00,51.6,49.0,30.06,NW,315,2.1,4.0,89,0.00,,,0.00,Rainwise IP-100,2013-10-10 12:45:00,
2013-10-10 05:50:00,51.9,48.0,30.06,NNE,22,0.0,3.0,88,0.00,,,0.00,Rainwise IP-100,2013-10-10 12:50:00,
2013-10-10 05:55:00,51.8,48.0,30.07,NNE,22,0.0,1.0,87,0.00,,,0.00,Rainwise IP-100,2013-10-10 12:55:00,
2013-10-10 06:00:00,51.6,48.0,30.06,NNE,22,1.4,1.4,87,0.00,,,0.00,Rainwise IP-100,2013-10-10 13:00:00,
2013-10-10 06:05:00,51.4,47.0,30.07,NNE,22,0.0,2.0,87,0.00,,,0.00,Rainwise IP-100,2013-10-10 13:05:00,
2013-10-10 06:10:00,51.3,47.0,30.07,NNE,22,0.0,1.0,88,0.00,,,0.00,Rainwise IP-100,2013-10-10 13:10:00,
2013-10-10 06:15:00,51.2,47.0,30.07,NNE,22,0.0,0.0,88,0.00,,,0.00,Rainwise IP-100,2013-10-10 13:15:00,
2013-10-10 06:20:00,51.3,48.0,30.07,NE,45,2.3,3.0,89,0.00,,,0.00,Rainwise IP-100,2013-10-10 13:20:00,
2013-10-10 06:25:00,52.0,49.0,30.07,NNE,22,1.6,4.0,90,0.00,,,0.00,Rainwise IP-100,2013-10-10 13:25:00,
2013-10-10 06:30:00,52.5,50.0,30.08,North,360,1.4,3.0,89,0.00,,,0.00,Rainwise IP-100,2013-10-10 13:30:00,
2013-10-10 06:35:00,52.6,50.0,30.08,North,360,0.0,2.0,89,0.00,,,0.00,Rainwise IP-100,2013-10-10 13:35:00,
2013-10-10 06:40:00,52.4,49.0,30.08,North,360,1.2,1.2,90,0.00,,,0.00,Rainwise IP-100,2013-10-10 13:40:00,
2013-10-10 06:45:00,52.3,49.0,30.08,North,360,0.0,2.0,90,0.00,,,0.00,Rainwise IP-100,2013-10-10 13:45:00,
2013-10-10 06:50:00,52.2,49.0,30.08,North,360,1.2,1.2,90,0.00,,,0.00,Rainwise IP-100,2013-10-10 13:50:00,
2013-10-10 06:55:00,52.2,49.0,30.08,North,360,0.0,1.0,90,0.00,,,0.00,Rainwise IP-100,2013-10-10 13:55:00,
2013-10-10 07:00:00,52.0,49.0,30.08,North,360,0.0,0.0,90,0.00,,,0.00,Rainwise IP-100,2013-10-10 14:00:00,
2013-10-10 07:05:00,51.6,49.0,30.08,SSW,202,0.0,1.0,91,0.00,,,0.00,Rainwise IP-100,2013-10-10 14:05:00,
2013-10-10 07:10:00,51.1,49.0,30.08,SSW,202,0.0,0.0,91,0.00,,,0.00,Rainwise IP-100,2013-10-10 14:10:00,
2013-10-10 07:15:00,50.9,49.0,30.08,WSW,247,1.2,1.2,91,0.00,,,0.00,Rainwise IP-100,2013-10-10 14:15:00,
2013-10-10 07:20:00,51.1,49.0,30.08,West,270,0.0,1.0,91,0.00,,,0.00,Rainwise IP-100,2013-10-10 14:20:00,
2013-10-10 07:25:00,51.2,49.0,30.08,SW,225,1.4,1.4,92,0.00,,,0.00,Rainwise IP-100,2013-10-10 14:25:00,
2013-10-10 07:30:00,51.2,49.0,30.08,SW,225,0.0,1.0,92,0.00,,,0.00,Rainwise IP-100,2013-10-10 14:30:00,
2013-10-10 07:35:00,51.2,49.0,30.08,SW,225,0.0,0.0,92,0.00,,,0.00,Rainwise IP-100,2013-10-10 14:35:00,
2013-10-10 07:40:00,51.1,49.0,30.09,SW,225,0.0,0.0,92,0.00,,,0.00,Rainwise IP-100,2013-10-10 14:40:00,
2013-10-10 07:45:00,51.1,49.0,30.09,SW,225,0.0,0.0,92,0.00,,,0.00,Rainwise IP-100,2013-10-10 14:45:00,
2013-10-10 07:50:00,51.3,49.0,30.10,WSW,247,0.0,1.0,93,0.00,,,0.00,Rainwise IP-100,2013-10-10 14:50:00,
2013-10-10 07:55:00,51.6,50.0,30.10,WSW,247,0.0,0.0,93,0.00,,,0.00,Rainwise IP-100,2013-10-10 14:55:00,
2013-10-10 08:00:00,51.7,50.0,30.10,WSW,247,0.0,0.0,92,0.00,,,0.00,Rainwise IP-100,2013-10-10 15:00:00,
2013-10-10 08:05:00,51.8,50.0,30.11,WSW,247,1.4,2.0,92,0.00,,,0.00,Rainwise IP-100,2013-10-10 15:05:00,
2013-10-10 08:10:00,51.7,50.0,30.11,NW,315,3.0,4.0,92,0.00,,,0.00,Rainwise IP-100,2013-10-10 15:10:00,
2013-10-10 08:15:00,51.9,50.0,30.11,WNW,292,2.8,4.0,92,0.00,,,0.00,Rainwise IP-100,2013-10-10 15:15:00,
2013-10-10 08:20:00,52.3,49.0,30.11,West,270,1.9,3.0,91,0.00,,,0.00,Rainwise IP-100,2013-10-10 15:20:00,
2013-10-10 08:25:00,52.5,50.0,30.12,WSW,247,5.4,10.0,90,0.00,,,0.00,Rainwise IP-100,2013-10-10 15:25:00,
2013-10-10 08:30:00,52.3,49.0,30.13,West,270,5.6,12.0,90,0.00,,,0.00,Rainwise IP-100,2013-10-10 15:30:00,
2013-10-10 08:35:00,52.2,49.0,30.13,WNW,292,3.7,9.0,90,0.00,,,0.00,Rainwise IP-100,2013-10-10 15:35:00,
2013-10-10 08:40:00,52.1,49.0,30.13,SSW,202,3.3,10.0,91,0.00,,,0.00,Rainwise IP-100,2013-10-10 15:40:00,
2013-10-10 08:45:00,52.1,49.0,30.14,WSW,247,3.3,10.0,91,0.00,,,0.00,Rainwise IP-100,2013-10-10 15:45:00,
2013-10-10 08:50:00,52.2,49.0,30.14,WSW,247,6.3,9.0,91,0.00,,,0.00,Rainwise IP-100,2013-10-10 15:50:00,
2013-10-10 08:53:00,52.2,49.0,30.13,SW,225,4.9,8.0,91,0.00,,,0.00,Rainwise IP-100,2013-10-10 15:53:00,
2013-10-10 08:58:00,52.5,50.0,30.14,West,270,5.8,9.0,91,0.00,,,0.00,Rainwise IP-100,2013-10-10 15:58:00,
2013-10-10 09:03:00,52.6,50.0,30.14,West,270,7.7,12.0,91,0.00,,,0.00,Rainwise IP-100,2013-10-10 16:03:00,
2013-10-10 09:08:00,53.0,50.0,30.14,WNW,292,2.3,9.0,91,0.00,,,0.00,Rainwise IP-100,2013-10-10 16:08:00,
2013-10-10 09:13:00,53.4,50.0,30.15,WSW,247,2.6,7.0,90,0.00,,,0.00,Rainwise IP-100,2013-10-10 16:13:00,
2013-10-10 09:18:00,53.8,50.0,30.15,WNW,292,6.1,10.0,89,0.00,,,0.00,Rainwise IP-100,2013-10-10 16:18:00,
2013-10-10 09:23:00,54.0,50.0,30.15,NW,315,4.4,10.0,88,0.00,,,0.00,Rainwise IP-100,2013-10-10 16:23:00,
2013-10-10 09:28:00,54.1,50.0,30.15,WNW,292,6.1,9.0,87,0.00,,,0.00,Rainwise IP-100,2013-10-10 16:28:00,
2013-10-10 09:33:00,54.5,50.0,30.15,NNW,337,2.1,10.0,87,0.00,,,0.00,Rainwise IP-100,2013-10-10 16:33:00,
2013-10-10 09:38:00,54.9,51.0,30.16,West,270,3.3,9.0,86,0.00,,,0.00,Rainwise IP-100,2013-10-10 16:38:00,
2013-10-10 09:43:00,55.4,50.0,30.16,SSW,202,2.8,6.0,85,0.00,,,0.00,Rainwise IP-100,2013-10-10 16:43:00,
2013-10-10 09:48:00,56.2,50.0,30.16,SW,225,3.0,6.0,83,0.00,,,0.00,Rainwise IP-100,2013-10-10 16:48:00,
2013-10-10 09:53:00,56.8,51.0,30.16,NW,315,1.6,6.0,82,0.00,,,0.00,Rainwise IP-100,2013-10-10 16:53:00,
2013-10-10 09:58:00,57.3,51.0,30.16,West,270,6.1,6.1,81,0.00,,,0.00,Rainwise IP-100,2013-10-10 16:58:00,
2013-10-10 10:03:00,57.6,51.0,30.16,SW,225,3.7,6.0,79,0.00,,,0.00,Rainwise IP-100,2013-10-10 17:03:00,
2013-10-10 10:08:00,57.8,50.0,30.16,WNW,292,3.0,7.0,78,0.00,,,0.00,Rainwise IP-100,2013-10-10 17:08:00,
2013-10-10 10:13:00,58.0,51.0,30.16,WNW,292,1.9,5.0,78,0.00,,,0.00,Rainwise IP-100,2013-10-10 17:13:00,
2013-10-10 10:18:00,58.2,51.0,30.16,WNW,292,1.4,5.0,77,0.00,,,0.00,Rainwise IP-100,2013-10-10 17:18:00,
2013-10-10 10:23:00,58.7,51.0,30.16,WSW,247,3.0,5.0,76,0.00,,,0.00,Rainwise IP-100,2013-10-10 17:23:00,
2013-10-10 10:28:00,59.6,51.0,30.16,SSE,157,1.6,5.0,74,0.00,,,0.00,Rainwise IP-100,2013-10-10 17:28:00,
2013-10-10 10:33:00,60.6,51.0,30.16,ENE,67,0.0,4.0,72,0.00,,,0.00,Rainwise IP-100,2013-10-10 17:33:00,
2013-10-10 10:38:00,61.3,51.0,30.16,SSE,157,1.9,5.0,71,0.00,,,0.00,Rainwise IP-100,2013-10-10 17:38:00,
2013-10-10 10:43:00,61.9,52.0,30.16,SSE,157,1.2,4.0,70,0.00,,,0.00,Rainwise IP-100,2013-10-10 17:43:00,
2013-10-10 10:48:00,62.3,51.0,30.17,ENE,67,0.0,2.0,68,0.00,,,0.00,Rainwise IP-100,2013-10-10 17:48:00,
2013-10-10 10:53:00,62.9,52.0,30.16,ESE,112,1.2,4.0,67,0.00,,,0.00,Rainwise IP-100,2013-10-10 17:53:00,
2013-10-10 10:58:00,63.4,52.0,30.17,SSE,157,1.6,7.0,66,0.00,,,0.00,Rainwise IP-100,2013-10-10 17:58:00,
2013-10-10 11:03:00,63.3,51.0,30.16,West,270,7.7,7.7,66,0.00,,,0.00,Rainwise IP-100,2013-10-10 18:03:00,
2013-10-10 11:08:00,62.5,51.0,30.17,SW,225,5.8,8.0,67,0.00,,,0.00,Rainwise IP-100,2013-10-10 18:08:00,
2013-10-10 11:13:00,61.8,51.0,30.17,SSE,157,0.0,8.0,69,0.00,,,0.00,Rainwise IP-100,2013-10-10 18:13:00,
2013-10-10 11:18:00,62.0,52.0,30.17,WSW,247,1.4,7.0,69,0.00,,,0.00,Rainwise IP-100,2013-10-10 18:18:00,
2013-10-10 11:23:00,62.2,52.0,30.17,NNE,22,0.0,7.0,69,0.00,,,0.00,Rainwise IP-100,2013-10-10 18:23:00,
2013-10-10 11:28:00,61.9,52.0,30.17,NNE,22,0.0,7.0,69,0.00,,,0.00,Rainwise IP-100,2013-10-10 18:28:00,
2013-10-10 11:33:00,62.0,51.0,30.18,West,270,4.7,9.0,68,0.00,,,0.00,Rainwise IP-100,2013-10-10 18:33:00,
2013-10-10 11:38:00,62.0,51.0,30.18,WNW,292,0.0,7.0,68,0.00,,,0.00,Rainwise IP-100,2013-10-10 18:38:00,
2013-10-10 11:43:00,62.0,51.0,30.18,WSW,247,5.8,8.0,68,0.00,,,0.00,Rainwise IP-100,2013-10-10 18:43:00,
2013-10-10 11:48:00,61.8,50.0,30.18,NW,315,4.7,11.0,68,0.00,,,0.00,Rainwise IP-100,2013-10-10 18:48:00,
2013-10-10 11:53:00,61.5,51.0,30.18,West,270,3.5,12.0,69,0.00,,,0.00,Rainwise IP-100,2013-10-10 18:53:00,
2013-10-10 11:58:00,61.4,51.0,30.18,ENE,67,0.0,10.0,69,0.00,,,0.00,Rainwise IP-100,2013-10-10 18:58:00,
2013-10-10 12:03:00,61.6,51.0,30.18,WNW,292,5.4,8.0,69,0.00,,,0.00,Rainwise IP-100,2013-10-10 19:03:00,
2013-10-10 12:08:00,61.5,50.0,30.18,WSW,247,4.7,12.0,68,0.00,,,0.00,Rainwise IP-100,2013-10-10 19:08:00,
2013-10-10 12:13:00,60.9,50.0,30.18,WNW,292,4.0,10.0,69,0.00,,,0.00,Rainwise IP-100,2013-10-10 19:13:00,
2013-10-10 12:18:00,60.8,50.0,30.18,WNW,292,6.3,12.0,70,0.00,,,0.00,Rainwise IP-100,2013-10-10 19:18:00,
2013-10-10 12:23:00,60.7,50.0,30.18,WSW,247,4.0,13.0,70,0.00,,,0.00,Rainwise IP-100,2013-10-10 19:23:00,
2013-10-10 12:28:00,60.5,50.0,30.19,WSW,247,5.6,13.0,70,0.00,,,0.00,Rainwise IP-100,2013-10-10 19:28:00,
2013-10-10 12:33:00,60.4,51.0,30.18,SSW,202,4.0,12.0,71,0.00,,,0.00,Rainwise IP-100,2013-10-10 19:33:00,
2013-10-10 12:38:00,60.5,51.0,30.18,SSW,202,2.3,13.0,71,0.00,,,0.00,Rainwise IP-100,2013-10-10 19:38:00,
2013-10-10 12:43:00,60.7,51.0,30.18,WNW,292,6.3,11.0,71,0.00,,,0.00,Rainwise IP-100,2013-10-10 19:43:00,
2013-10-10 12:48:00,60.8,51.0,30.18,SSW,202,4.9,11.0,71,0.00,,,0.00,Rainwise IP-100,2013-10-10 19:48:00,
2013-10-10 12:53:00,60.5,51.0,30.18,SSW,202,3.3,13.0,71,0.00,,,0.00,Rainwise IP-100,2013-10-10 19:53:00,
2013-10-10 12:58:00,60.5,51.0,30.18,SE,135,7.0,11.0,72,0.00,,,0.00,Rainwise IP-100,2013-10-10 19:58:00,
2013-10-10 13:03:00,60.2,51.0,30.17,West,270,2.3,15.0,73,0.00,,,0.00,Rainwise IP-100,2013-10-10 20:03:00,
2013-10-10 13:08:00,59.6,51.0,30.18,NW,315,3.7,14.0,74,0.00,,,0.00,Rainwise IP-100,2013-10-10 20:08:00,
2013-10-10 13:13:00,59.3,50.0,30.18,WNW,292,3.0,14.0,74,0.00,,,0.00,Rainwise IP-100,2013-10-10 20:13:00,
2013-10-10 13:18:00,59.3,51.0,30.18,NNW,337,1.9,13.0,75,0.00,,,0.00,Rainwise IP-100,2013-10-10 20:18:00,
2013-10-10 13:23:00,59.6,51.0,30.18,West,270,3.3,14.0,74,0.00,,,0.00,Rainwise IP-100,2013-10-10 20:23:00,
2013-10-10 13:28:00,59.7,51.0,30.18,WNW,292,2.8,12.0,74,0.00,,,0.00,Rainwise IP-100,2013-10-10 20:28:00,
2013-10-10 13:33:00,59.9,51.0,30.17,WSW,247,4.4,10.0,74,0.00,,,0.00,Rainwise IP-100,2013-10-10 20:33:00,
2013-10-10 13:38:00,59.6,51.0,30.17,WNW,292,4.0,17.0,74,0.00,,,0.00,Rainwise IP-100,2013-10-10 20:38:00,
2013-10-10 13:43:00,58.8,51.0,30.18,WSW,247,8.4,19.0,75,0.00,,,0.00,Rainwise IP-100,2013-10-10 20:43:00,
2013-10-10 13:48:00,58.3,50.0,30.18,WNW,292,2.6,18.0,76,0.00,,,0.00,Rainwise IP-100,2013-10-10 20:48:00,
2013-10-10 13:53:00,58.3,51.0,30.18,WNW,292,4.2,16.0,77,0.00,,,0.00,Rainwise IP-100,2013-10-10 20:53:00,
2013-10-10 13:58:00,58.6,51.0,30.17,South,180,6.1,14.0,76,0.00,,,0.00,Rainwise IP-100,2013-10-10 20:58:00,
2013-10-10 14:03:00,58.7,51.0,30.18,SW,225,9.3,15.0,76,0.00,,,0.00,Rainwise IP-100,2013-10-10 21:03:00,
2013-10-10 14:08:00,58.5,51.0,30.18,WSW,247,8.6,13.0,76,0.00,,,0.00,Rainwise IP-100,2013-10-10 21:08:00,
2013-10-10 14:13:00,58.5,52.0,30.19,WNW,292,6.5,15.0,77,0.00,,,0.00,Rainwise IP-100,2013-10-10 21:13:00,
2013-10-10 14:18:00,58.4,51.0,30.19,SSE,157,4.4,15.0,77,0.00,,,0.00,Rainwise IP-100,2013-10-10 21:18:00,
2013-10-10 14:23:00,58.2,51.0,30.19,WNW,292,6.8,17.0,77,0.00,,,0.00,Rainwise IP-100,2013-10-10 21:23:00,
2013-10-10 14:28:00,58.2,51.0,30.18,South,180,4.9,17.0,77,0.00,,,0.00,Rainwise IP-100,2013-10-10 21:28:00,
2013-10-10 14:33:00,58.4,51.0,30.18,WNW,292,5.6,17.0,77,0.00,,,0.00,Rainwise IP-100,2013-10-10 21:33:00,
2013-10-10 14:38:00,58.9,51.0,30.18,WSW,247,1.6,11.0,76,0.00,,,0.00,Rainwise IP-100,2013-10-10 21:38:00,
2013-10-10 14:43:00,59.0,51.0,30.19,WSW,247,4.4,15.0,76,0.00,,,0.00,Rainwise IP-100,2013-10-10 21:43:00,
2013-10-10 14:48:00,58.4,51.0,30.19,West,270,3.3,18.0,77,0.00,,,0.00,Rainwise IP-100,2013-10-10 21:48:00,
2013-10-10 14:53:00,58.5,52.0,30.19,WNW,292,2.3,16.0,77,0.00,,,0.00,Rainwise IP-100,2013-10-10 21:53:00,
2013-10-10 14:58:00,59.1,51.0,30.19,West,270,4.2,15.0,75,0.00,,,0.00,Rainwise IP-100,2013-10-10 21:58:00,
2013-10-10 15:03:00,59.4,51.0,30.18,West,270,2.1,14.0,74,0.00,,,0.00,Rainwise IP-100,2013-10-10 22:03:00,
2013-10-10 15:08:00,59.6,51.0,30.19,SSW,202,4.9,10.0,74,0.00,,,0.00,Rainwise IP-100,2013-10-10 22:08:00,
2013-10-10 15:13:00,59.7,51.0,30.18,SW,225,9.8,12.0,74,0.00,,,0.00,Rainwise IP-100,2013-10-10 22:13:00,
2013-10-10 15:18:00,59.7,50.0,30.19,WSW,247,1.4,11.0,73,0.00,,,0.00,Rainwise IP-100,2013-10-10 22:18:00,
2013-10-10 15:23:00,59.4,50.0,30.18,SW,225,2.1,15.0,73,0.00,,,0.00,Rainwise IP-100,2013-10-10 22:23:00,
2013-10-10 15:28:00,59.3,50.0,30.19,SW,225,5.4,13.0,73,0.00,,,0.00,Rainwise IP-100,2013-10-10 22:28:00,
2013-10-10 15:33:00,59.7,50.0,30.18,WNW,292,2.1,9.0,73,0.00,,,0.00,Rainwise IP-100,2013-10-10 22:33:00,
2013-10-10 15:38:00,59.8,50.0,30.18,WSW,247,4.2,12.0,72,0.00,,,0.00,Rainwise IP-100,2013-10-10 22:38:00,
2013-10-10 15:43:00,59.5,50.0,30.18,West,270,4.4,13.0,72,0.00,,,0.00,Rainwise IP-100,2013-10-10 22:43:00,
2013-10-10 15:48:00,59.4,50.0,30.18,WSW,247,4.0,13.0,73,0.00,,,0.00,Rainwise IP-100,2013-10-10 22:48:00,
2013-10-10 15:53:00,59.7,50.0,30.18,WNW,292,5.8,10.0,72,0.00,,,0.00,Rainwise IP-100,2013-10-10 22:53:00,
2013-10-10 15:58:00,59.7,50.0,30.18,WNW,292,3.3,12.0,72,0.00,,,0.00,Rainwise IP-100,2013-10-10 22:58:00,
2013-10-10 16:03:00,59.9,50.0,30.17,WSW,247,2.8,11.0,71,0.00,,,0.00,Rainwise IP-100,2013-10-10 23:03:00,
2013-10-10 16:08:00,60.0,50.0,30.18,NNW,337,2.3,12.0,71,0.00,,,0.00,Rainwise IP-100,2013-10-10 23:08:00,
2013-10-10 16:13:00,59.7,50.0,30.18,WNW,292,1.2,9.0,71,0.00,,,0.00,Rainwise IP-100,2013-10-10 23:13:00,
2013-10-10 16:18:00,59.8,50.0,30.18,WSW,247,5.6,8.0,72,0.00,,,0.00,Rainwise IP-100,2013-10-10 23:18:00,
2013-10-10 16:23:00,60.0,50.0,30.18,SW,225,10.0,10.0,71,0.00,,,0.00,Rainwise IP-100,2013-10-10 23:23:00,
2013-10-10 16:28:00,60.3,50.0,30.18,WSW,247,8.2,11.0,71,0.00,,,0.00,Rainwise IP-100,2013-10-10 23:28:00,
2013-10-10 16:33:00,60.1,50.0,30.18,WSW,247,4.4,11.0,70,0.00,,,0.00,Rainwise IP-100,2013-10-10 23:33:00,
2013-10-10 16:38:00,60.0,50.0,30.18,WNW,292,5.8,9.0,70,0.00,,,0.00,Rainwise IP-100,2013-10-10 23:38:00,
2013-10-10 16:43:00,60.2,50.0,30.17,NW,315,4.4,10.0,70,0.00,,,0.00,Rainwise IP-100,2013-10-10 23:43:00,
2013-10-10 16:48:00,60.3,50.0,30.18,West,270,2.1,14.0,69,0.00,,,0.00,Rainwise IP-100,2013-10-10 23:48:00,
2013-10-10 16:53:00,59.9,50.0,30.17,WNW,292,11.0,11.0,70,0.00,,,0.00,Rainwise IP-100,2013-10-10 23:53:00,
2013-10-10 16:58:00,58.9,50.0,30.18,SSW,202,4.2,17.0,71,0.00,,,0.00,Rainwise IP-100,2013-10-10 23:58:00,
2013-10-10 17:03:00,58.6,50.0,30.18,NNE,22,0.0,11.0,72,0.00,,,0.00,Rainwise IP-100,2013-10-11 00:03:00,
2013-10-10 17:08:00,58.5,50.0,30.18,NW,315,6.1,15.0,73,0.00,,,0.00,Rainwise IP-100,2013-10-11 00:08:00,
2013-10-10 17:13:00,58.2,50.0,30.17,SW,225,3.5,9.0,73,0.00,,,0.00,Rainwise IP-100,2013-10-11 00:13:00,
2013-10-10 17:18:00,58.1,50.0,30.18,WSW,247,7.2,13.0,74,0.00,,,0.00,Rainwise IP-100,2013-10-11 00:18:00,
2013-10-10 17:23:00,57.6,50.0,30.18,West,270,1.9,13.0,74,0.00,,,0.00,Rainwise IP-100,2013-10-11 00:23:00,
2013-10-10 17:28:00,56.5,49.0,30.18,WSW,247,7.9,14.0,76,0.00,,,0.00,Rainwise IP-100,2013-10-11 00:28:00,
2013-10-10 17:33:00,55.7,50.0,30.19,WNW,292,6.8,11.0,79,0.00,,,0.00,Rainwise IP-100,2013-10-11 00:33:00,
2013-10-10 17:38:00,55.2,50.0,30.19,WSW,247,3.0,15.0,81,0.00,,,0.00,Rainwise IP-100,2013-10-11 00:38:00,
2013-10-10 17:43:00,54.7,49.0,30.19,WNW,292,6.8,14.0,82,0.00,,,0.00,Rainwise IP-100,2013-10-11 00:43:00,
2013-10-10 17:48:00,54.1,49.0,30.19,SSW,202,9.3,17.0,84,0.00,,,0.00,Rainwise IP-100,2013-10-11 00:48:00,
2013-10-10 17:53:00,53.6,49.0,30.19,SW,225,15.4,19.0,86,0.00,,,0.00,Rainwise IP-100,2013-10-11 00:53:00,
2013-10-10 17:58:00,53.4,49.0,30.19,SW,225,8.2,15.0,86,0.00,,,0.00,Rainwise IP-100,2013-10-11 00:58:00,
2013-10-10 18:03:00,53.2,49.0,30.19,West,270,12.4,18.0,87,0.00,,,0.00,Rainwise IP-100,2013-10-11 01:03:00,
2013-10-10 18:08:00,52.9,49.0,30.19,WNW,292,5.8,14.0,88,0.00,,,0.00,Rainwise IP-100,2013-10-11 01:08:00,
2013-10-10 18:13:00,52.7,49.0,30.19,West,270,2.3,15.0,88,0.00,,,0.00,Rainwise IP-100,2013-10-11 01:13:00,
2013-10-10 18:18:00,52.6,50.0,30.19,NNE,22,1.2,17.0,89,0.00,,,0.00,Rainwise IP-100,2013-10-11 01:18:00,
2013-10-10 18:23:00,52.6,50.0,30.19,SSE,157,2.3,17.0,89,0.00,,,0.00,Rainwise IP-100,2013-10-11 01:23:00,
2013-10-10 18:28:00,52.5,50.0,30.19,WNW,292,4.4,14.0,90,0.00,,,0.00,Rainwise IP-100,2013-10-11 01:28:00,
2013-10-10 18:33:00,52.5,50.0,30.19,SSW,202,2.8,8.0,90,0.00,,,0.00,Rainwise IP-100,2013-10-11 01:33:00,
2013-10-10 18:38:00,52.4,49.0,30.19,South,180,2.8,12.0,90,0.00,,,0.00,Rainwise IP-100,2013-10-11 01:38:00,
2013-10-10 18:43:00,52.2,49.0,30.19,NW,315,0.0,12.0,90,0.00,,,0.00,Rainwise IP-100,2013-10-11 01:43:00,
2013-10-10 18:48:00,52.0,49.0,30.19,SW,225,3.7,11.0,91,0.00,,,0.00,Rainwise IP-100,2013-10-11 01:48:00,
2013-10-10 18:53:00,51.9,49.0,30.19,WSW,247,4.0,13.0,91,0.00,,,0.00,Rainwise IP-100,2013-10-11 01:53:00,
2013-10-10 18:58:00,51.9,49.0,30.19,West,270,0.0,9.0,91,0.00,,,0.00,Rainwise IP-100,2013-10-11 01:58:00,
2013-10-10 19:03:00,51.9,50.0,30.19,WNW,292,4.2,11.0,92,0.00,,,0.00,Rainwise IP-100,2013-10-11 02:03:00,
2013-10-10 19:08:00,51.8,50.0,30.19,WSW,247,7.5,14.0,92,0.00,,,0.00,Rainwise IP-100,2013-10-11 02:08:00,
2013-10-10 19:13:00,51.7,50.0,30.19,WSW,247,4.9,14.0,92,0.00,,,0.00,Rainwise IP-100,2013-10-11 02:13:00,
2013-10-10 19:18:00,51.7,50.0,30.20,West,270,4.9,11.0,92,0.00,,,0.00,Rainwise IP-100,2013-10-11 02:18:00,
2013-10-10 19:23:00,51.6,50.0,30.19,WNW,292,6.1,13.0,92,0.00,,,0.00,Rainwise IP-100,2013-10-11 02:23:00,
2013-10-10 19:28:00,51.6,50.0,30.20,West,270,1.6,13.0,93,0.00,,,0.00,Rainwise IP-100,2013-10-11 02:28:00,
2013-10-10 19:33:00,51.5,50.0,30.20,East,90,3.7,11.0,93,0.00,,,0.00,Rainwise IP-100,2013-10-11 02:33:00,
2013-10-10 19:38:00,51.5,50.0,30.20,WSW,247,7.7,11.0,93,0.00,,,0.00,Rainwise IP-100,2013-10-11 02:38:00,
2013-10-10 19:43:00,51.4,49.0,30.20,WSW,247,4.9,14.0,93,0.00,,,0.00,Rainwise IP-100,2013-10-11 02:43:00,
2013-10-10 19:48:00,51.4,49.0,30.20,West,270,4.0,13.0,93,0.00,,,0.00,Rainwise IP-100,2013-10-11 02:48:00,
2013-10-10 19:53:00,51.4,50.0,30.21,West,270,3.5,11.0,94,0.00,,,0.00,Rainwise IP-100,2013-10-11 02:53:00,
2013-10-10 19:58:00,51.4,50.0,30.21,WSW,247,4.2,13.0,94,0.00,,,0.00,Rainwise IP-100,2013-10-11 02:58:00,
2013-10-10 20:03:00,51.4,50.0,30.21,NW,315,4.2,11.0,94,0.00,,,0.00,Rainwise IP-100,2013-10-11 03:03:00,
2013-10-10 20:08:00,51.3,50.0,30.21,West,270,7.9,11.0,94,0.00,,,0.00,Rainwise IP-100,2013-10-11 03:08:00,
2013-10-10 20:13:00,51.3,50.0,30.21,NE,45,0.0,10.0,94,0.00,,,0.00,Rainwise IP-100,2013-10-11 03:13:00,
2013-10-10 20:18:00,51.4,50.0,30.21,WSW,247,4.9,10.0,94,0.00,,,0.00,Rainwise IP-100,2013-10-11 03:18:00,
2013-10-10 20:23:00,51.4,50.0,30.22,WNW,292,3.5,8.0,94,0.00,,,0.00,Rainwise IP-100,2013-10-11 03:23:00,
2013-10-10 20:28:00,51.4,50.0,30.22,WSW,247,3.7,11.0,94,0.00,,,0.00,Rainwise IP-100,2013-10-11 03:28:00,
2013-10-10 20:33:00,51.4,50.0,30.22,South,180,2.3,9.0,94,0.00,,,0.00,Rainwise IP-100,2013-10-11 03:33:00,
2013-10-10 20:38:00,51.4,50.0,30.22,SW,225,2.8,12.0,94,0.00,,,0.00,Rainwise IP-100,2013-10-11 03:38:00,
2013-10-10 20:43:00,51.4,50.0,30.22,ENE,67,1.6,8.0,94,0.00,,,0.00,Rainwise IP-100,2013-10-11 03:43:00,
2013-10-10 20:48:00,51.4,50.0,30.22,NW,315,2.6,7.0,94,0.00,,,0.00,Rainwise IP-100,2013-10-11 03:48:00,
2013-10-10 20:53:00,51.5,50.0,30.23,WSW,247,5.6,8.0,94,0.00,,,0.00,Rainwise IP-100,2013-10-11 03:53:00,
2013-10-10 20:58:00,51.5,50.0,30.23,SW,225,7.5,13.0,94,0.00,,,0.00,Rainwise IP-100,2013-10-11 03:58:00,
2013-10-10 21:01:00,51.4,50.0,30.23,SSE,157,1.6,10.0,94,0.00,,,0.00,Rainwise IP-100,2013-10-11 04:01:00,
2013-10-10 21:06:00,51.4,50.0,30.23,WNW,292,3.3,11.0,94,0.00,,,0.00,Rainwise IP-100,2013-10-11 04:06:00,
2013-10-10 21:11:00,51.3,50.0,30.23,NW,315,3.5,10.0,94,0.00,,,0.00,Rainwise IP-100,2013-10-11 04:11:00,
2013-10-10 21:16:00,51.2,50.0,30.23,East,90,1.2,11.0,94,0.00,,,0.00,Rainwise IP-100,2013-10-11 04:16:00,
2013-10-10 21:21:00,51.2,50.0,30.24,SE,135,1.4,9.0,94,0.00,,,0.00,Rainwise IP-100,2013-10-11 04:21:00,
2013-10-10 21:26:00,51.2,50.0,30.24,West,270,4.9,8.0,94,0.00,,,0.00,Rainwise IP-100,2013-10-11 04:26:00,
2013-10-10 21:31:00,51.1,50.0,30.24,SSW,202,1.4,9.0,94,0.00,,,0.00,Rainwise IP-100,2013-10-11 04:31:00,
2013-10-10 21:36:00,51.0,50.0,30.23,WSW,247,1.6,10.0,94,0.00,,,0.00,Rainwise IP-100,2013-10-11 04:36:00,
2013-10-10 21:41:00,50.9,50.0,30.24,SW,225,1.6,9.0,94,0.00,,,0.00,Rainwise IP-100,2013-10-11 04:41:00,
2013-10-10 21:46:00,50.9,50.0,30.24,WSW,247,1.4,9.0,94,0.00,,,0.00,Rainwise IP-100,2013-10-11 04:46:00,
2013-10-10 21:51:00,50.8,49.0,30.24,SW,225,2.6,8.0,95,0.00,,,0.00,Rainwise IP-100,2013-10-11 04:51:00,
2013-10-10 21:56:00,50.7,49.0,30.24,WSW,247,0.0,8.0,95,0.00,,,0.00,Rainwise IP-100,2013-10-11 04:56:00,
2013-10-10 22:01:00,50.7,49.0,30.24,ESE,112,2.1,7.0,95,0.00,,,0.00,Rainwise IP-100,2013-10-11 05:01:00,
2013-10-10 22:06:00,50.7,49.0,30.24,WSW,247,0.0,5.0,95,0.00,,,0.00,Rainwise IP-100,2013-10-11 05:06:00,
2013-10-10 22:11:00,50.6,49.0,30.24,WSW,247,2.1,4.0,95,0.00,,,0.00,Rainwise IP-100,2013-10-11 05:11:00,
2013-10-10 22:16:00,50.6,49.0,30.24,West,270,1.4,6.0,95,0.00,,,0.00,Rainwise IP-100,2013-10-11 05:16:00,
2013-10-10 22:21:00,50.5,49.0,30.24,West,270,5.4,5.4,95,0.00,,,0.00,Rainwise IP-100,2013-10-11 05:21:00,
2013-10-10 22:26:00,50.5,49.0,30.24,West,270,2.8,6.0,95,0.00,,,0.00,Rainwise IP-100,2013-10-11 05:26:00,
2013-10-10 22:31:00,50.4,49.0,30.24,NW,315,2.3,8.0,95,0.00,,,0.00,Rainwise IP-100,2013-10-11 05:31:00,
2013-10-10 22:36:00,50.5,50.0,30.23,WNW,292,8.2,10.0,96,0.00,,,0.00,Rainwise IP-100,2013-10-11 05:36:00,
2013-10-10 22:41:00,50.5,50.0,30.24,WNW,292,7.2,12.0,96,0.00,,,0.00,Rainwise IP-100,2013-10-11 05:41:00,
2013-10-10 22:46:00,50.5,50.0,30.24,West,270,6.8,13.0,96,0.00,,,0.00,Rainwise IP-100,2013-10-11 05:46:00,
2013-10-10 22:51:00,50.4,50.0,30.24,WNW,292,8.2,14.0,96,0.00,,,0.00,Rainwise IP-100,2013-10-11 05:51:00,
2013-10-10 22:56:00,50.4,50.0,30.24,WNW,292,5.6,12.0,96,0.00,,,0.00,Rainwise IP-100,2013-10-11 05:56:00,
2013-10-10 23:01:00,50.4,50.0,30.24,WSW,247,3.5,13.0,96,0.00,,,0.00,Rainwise IP-100,2013-10-11 06:01:00,
2013-10-10 23:06:00,50.3,49.0,30.24,WNW,292,3.7,9.0,96,0.00,,,0.00,Rainwise IP-100,2013-10-11 06:06:00,
2013-10-10 23:11:00,50.3,49.0,30.25,West,270,8.4,11.0,96,0.00,,,0.00,Rainwise IP-100,2013-10-11 06:11:00,
2013-10-10 23:16:00,50.3,49.0,30.24,WNW,292,4.7,9.0,96,0.00,,,0.00,Rainwise IP-100,2013-10-11 06:16:00,
2013-10-10 23:21:00,50.3,49.0,30.26,WNW,292,6.5,13.0,96,0.00,,,0.00,Rainwise IP-100,2013-10-11 06:21:00,
2013-10-10 23:26:00,50.3,49.0,30.25,West,270,4.9,12.0,97,0.00,,,0.00,Rainwise IP-100,2013-10-11 06:26:00,
2013-10-10 23:31:00,50.2,49.0,30.25,WNW,292,7.9,10.0,97,0.00,,,0.00,Rainwise IP-100,2013-10-11 06:31:00,
2013-10-10 23:36:00,50.2,49.0,30.25,West,270,2.8,10.0,97,0.00,,,0.00,Rainwise IP-100,2013-10-11 06:36:00,
2013-10-10 23:41:00,50.3,49.0,30.26,WSW,247,2.6,9.0,97,0.00,,,0.00,Rainwise IP-100,2013-10-11 06:41:00,
2013-10-10 23:46:00,50.4,50.0,30.26,West,270,4.2,6.0,97,0.00,,,0.00,Rainwise IP-100,2013-10-11 06:46:00,
2013-10-10 23:51:00,50.4,50.0,30.26,SW,225,9.8,9.8,97,0.00,,,0.00,Rainwise IP-100,2013-10-11 06:51:00,
2013-10-10 23:56:00,50.5,50.0,30.26,SSW,202,0.0,9.0,97,0.00,,,0.00,Rainwise IP-100,2013-10-11 06:56:00,